Weather Service Report


089 
ASUS41 KAKQ 012215
RWRAKQ

REGIONAL WEATHER ROUNDUP
NATIONAL WEATHER SERVICE WAKEFIELD VA
600 PM EDT FRI JUL 01 2016

Note: "fair" indicates few or no clouds below 12,000 feet with no
significant weather and/or obstructions to visibility. * = Denotes
station may not report precipitation (e.g., rain,snow,etc.),
thunder or fog.

VAZ042-051-052>054-056-012300-
NORTHERN VIRGINIA
  
CITY           SKY/WX    TMP DP  RH WIND       PRES   REMARKS
WASH NATIONAL  TSTM      78  70  76 W8G28     29.86S                  
DULLES         PTSUNNY   84  66  54 SW5       29.87F                  
FORT BELVOIR   FAIR      84  71  66 VRB3      29.87R                  
QUANTICO       FAIR      83  75  77 S9        29.88R THUNDER          
FREDERICKSBRG* PTSUNNY   85  73  66 S3        29.87R                  
STAFFORD*      FAIR      80  72  75 W3        29.92R                  
WARRENTON      TSTM      75  66  75 SW12      29.91R                  
CULPEPER*      CLOUDY    74  69  85 N5        29.92R                  
MANASSAS*      TSTM      82  72  69 W5        29.88R                  
LEESBURG*      FAIR      88  72  58 SW6       29.88F                  
WINCHESTER     FAIR      84  61  45 NW12G18   29.90S                  
FRONT ROYAL*   FAIR      77  73  88 CALM      29.89S                  
LURAY*         FAIR      82  70  65 S3        29.91S                  
$$

VAZ048-049-060>072-079>083-012300-
CENTRAL AND SOUTH CENTRAL VIRGINIA
  
CITY           SKY/WX    TMP DP  RH WIND       PRES   REMARKS
RICHMOND       FAIR      82  71  69 SE8       29.89S                  
CHESTERFIELD*  FAIR      82  64  54 SE7       29.90F                  
PETERSBURG*    FAIR      84  73  69 SE3       29.90F                  
HANOVER        FAIR      84  71  65 VRB3      29.90F                  
TAPPAHANNOCK*  FAIR      81  72  74 SE7       29.91S                  
QUINTON*       FAIR      82  73  72 SE6       29.89F                  
CHARLOTTSVILLE PTSUNNY   88  70  55 SW5       29.88R                  
GORDONSVILLE*  CLOUDY    73  67  80 NE17G26   29.88S                  
ORANGE*        TSTM      70  70 100 S3        29.96R                  
LOUISA*        PTSUNNY   88  73  62 S3        29.88R HX  96           
BUMPASS*       FAIR      83  73  70 S3        29.88S                  
FARMVILLE*     FAIR      88  69  53 SW5       29.89S                  
CREWE*         FAIR      86  70  57 W3        29.90S                  
FORT PICKETT*  MOCLDY    87  72  61 W7        29.91S                  
CHASE CITY*    FAIR      87  68  54 CALM      29.91S                  
CLARKSVILLE*   FAIR      86  72  62 CALM      29.91S                  
SOUTH HILL*    FAIR      87  73  63 SW7       29.97S                  
LAWRENCEVILLE* MOCLDY    87  74  64 SW10      29.90F HX  95           
EMPORIA*       FAIR      86  73  66 CALM      29.91S                  
$$

VAZ088>098-012300-
SOUTHEAST VIRGINIA
  
CITY           SKY/WX    TMP DP  RH WIND       PRES   REMARKS
NORFOLK        PTSUNNY   76  72  87 SE8       29.91F                  
VIRGINIA BEACH PTSUNNY   78  70  76 S5        29.92F THUNDER          
NORFOLK NAVAL  PTSUNNY   78  71  79 SE7       29.93R                  
WEST POINT*    FAIR      81  72  74 SE7       29.92F                  
SALUDA*        CLOUDY    77  74  88 SE6       29.91F                  
NEWPORT NEWS   LGT RAIN  77  72  84 CALM      29.92F                  
LANGLEY AFB    LGT RAIN  76  70  83 SE5       29.91F                  
FORT EUSTIS    FAIR      78  76  96 SE5       29.90F                  
WILLIAMSBURG*  FAIR      81  73  78 SE7       29.92F                  
HR EXEC AP*    FAIR      81  72  74 E5        29.93F THUNDER          
FRANKLIN*      FAIR      80  70  71 NE8       29.91S                  
US460-WAKEFLD  FAIR      79  71  76 CALM      29.91F                  
$$

VAZ020-022-025-037-045-012300-
WEST CENTRAL AND SOUTHWEST VIRGINIA
  
CITY           SKY/WX    TMP DP  RH WIND       PRES   REMARKS
STAUNTON*      FAIR      82  65  57 W6        29.94S                  
WAYNESBORO*    FAIR      83  63  50 SW6       29.94S                  
HOT SPRINGS VA PTSUNNY   74  57  56 W14       30.08S                  
LYNCHBURG      FAIR      81  68  64 S7        29.94F                  
DANVILLE       FAIR      86  69  56 VRB6      29.92S                  
SOUTH BOSTON*  FAIR      84  69  60 SW3       29.91S                  
MARTINSVILLE   FAIR      80  65  61 CALM      29.97R                  
ROANOKE        FAIR      87  58  37 W6        29.97S                  
BLACKSBURG     FAIR      81  60  48 NW7G16    30.05S                  
DUBLIN*        FAIR      82  59  45 W8        30.04R                  
MARION*        FAIR      81  61  49 W8        30.08S                  
HILLSVILLE*    CLOUDY    79  61  53 W9        30.05S                  
RICHLANDS*     MOCLDY    78  61  56 NW5       30.08R                  
WISE*          PTSUNNY   79  55  44 N8        30.09S                  
ABINGDON*      FAIR      84  57  39 N3        30.04S                  
$$

MDZ021>025-VAZ099-100-012300-
SOUTHERN MARYLAND AND THE DELMARVA PENINSULA
  
CITY           SKY/WX    TMP DP  RH WIND       PRES   REMARKS
PATUXENT RIVER PTSUNNY   79  69  71 S9G22     29.90R                  
BAY BRIDGE APT CLOUDY    82  73  74 S22G29    29.85F                  
LEONARDTOWN    PTSUNNY   77  68  73 SE13G20   29.92S                  
DOVER          CLOUDY    79  72  81 S15       29.86R                  
GEORGETOWN     LGT RAIN  78  70  76 SW12G24   29.90F                  
EASTON         MOSUNNY   82  73  74 S14G25    29.91F                  
CAMBRIDGE      MOSUNNY   79  70  73 S13G20    29.90F                  
SALISBURY      CLOUDY    76  70  82 S16G23    29.90F                  
OCEAN CITY     CLOUDY    79  73  82 SW12G25   29.90F                  
WALLOPS ISLAND PTSUNNY   79  70  74 S14       29.91F                  
ACCOMACK*      PTSUNNY  N/A N/A N/A SE8       29.93F                  
$$

NCZ012>017-030>032-012300-
NORTH CENTRAL AND EASTERN NORTH CAROLINA
  
CITY           SKY/WX    TMP DP  RH WIND       PRES   REMARKS
ROANOKE RAPIDS FAIR      86  72  62 SW10      29.91R                  
RALEIGH        MOSUNNY   88  71  57 SW7       29.93S                  
ELIZABETH CITY MOSUNNY   83  73  72 S15       29.93S                  
AHOSKIE*       MOSUNNY   83  75  75 S8        29.91S                  
EDENTON*       MOSUNNY   85  71  62 S16       29.94R                  
CURRITUCK*     MOSUNNY   84  74  70 S7        29.94R                  
KILL DEVIL HLS SUNNY     84  71  65 S10G22    29.95R                  
MANTEO         MOSUNNY   81  74  79 SW21      29.96R                  
CAPE HATTERAS  CLOUDY    80  73  79 SW15G23   29.97F                  
TARBORO*       FAIR      89  72  57 SW6       29.92S HX  96           
GOLDSBORO      SUNNY     91  72  52 S10       29.92R HX  98           
WASHINGTON     SUNNY     82  74  77 S10       29.94R                  
GREENVILLE     MOSUNNY   86  77  74 S10       29.94S HX  97           
NEW BERN       CLOUDY    81  72  74 S10       29.97S                  
WILMINGTON     CLOUDY    80  72  76 S12       29.98S                  
$$

VAZ048-012300-
ELSEWHERE
  
CITY           SKY/WX    TMP DP  RH WIND       PRES   REMARKS
HARRISBURG PA  PTSUNNY   84  57  39 W8        29.84S                  
BALTIMORE      CLOUDY    76  67  73 S8        29.85F THUNDER          
ANNAPOLIS      CLOUDY    80  72  76 S20G29    29.84F                  
ANDREWS AFB    FAIR      83  71  66 S7        29.86S THUNDER          
PHILADELPHIA   CLOUDY    79  70  74 S9        29.85F                  
HENDERSON NC   SUNNY     84  68  58 SW8       29.93S                  
GREENSBORO     PTSUNNY   87  63  44 W8        29.94S                  
ROCKY MOUNT    MOSUNNY   87  73  62 S8        29.92S                  
$$

VAZ100-012300-
MARINE
  
STATION/POSITION TIME  TEMP    WIND        PRES    WAVE   SWELL
                       AIR SEA DIR/SP/G            HT/PER HT/PER
                 (UTC) (F)     (DEG/KT/KT) (MB)    (FT/S) (FT/S)
BRANDYWINE LGT   2100   77     200/ 19/ 23   N/A
CAPE MAY NJ      2100   75 74  170/ 11/ 17 1011.6F
LEWES DE         2100   81 71  210/ 10/ 19 1012.2F
15NM E FENWICK I 2150   75 72              1012.1F   3/ 3
OCEAN-CITY-INLET 2100   74 71  220/ 16/ 20 1013.4F
WACHAPREAGUE VA  2100   73 83   70/ 12/ 14 1013.8F
THOMAS POINT MD  2200   78 78  170/ 27/ 30 1011.4F
GOOSES REEF MD   2200   77 78  180/ 21/ 27 1013.0R   3/ 4
COVE POINT MD    2100   77     190/ 17/ 19 1012.7F
SOLOMONS ISLAND  2100   79 79  180/ 17/ 19   N/A
BISHOPS HEAD MD  2100   76 81  170/ 19/ 24 1013.0R
PINEY POINT MD   2100          170/ 14/ 17   N/A
POTOMAC MD       2200   77 79  190/ 19/ 21 1011.9F   3/ 3
CAMBRIDGE MD     2100   79 79  180/ 10/ 14 1011.8R
LEWISETTA VA     2100   80 81  160/ 13/ 17 1012.4S
RAPPAHANNOCK LGT 2100           80/ 15/ 16 1014.4R
STINGRAY PT      2100   77 80  170/ 14/ 17 1013.7S   2/ 3
YORK RVR RNG VA  2100   76     140/ 16/ 17 1012.9R
YORKTOWN VA      2100   77 79   90/  2/  2 1013.1R
JAMESTOWN VA     2200   78 82  100/  8/ 10   N/A
DOMINION TERM VA 2100   77      80/  7/ 11 1013.0R
KIPTOPEKE VA     2100      79  120/ 10/ 12   N/A
CHES BAY BRIDGE  2100   76 76   90/  8/ 11 1013.8R
CAPE HENRY VA    2100   69     160/ 15/ 19   N/A
WILLOUBY STN VA  2100   76     300/  2/  3 1014.0R
CAPE HENRY BUOY  2112      78                N/A     4/ 5
1ST LANDING BUOY 2200   75 77  150/  8/ 12 1013.1S
CAPE CHARLES BUO 2126      75                N/A     3/ 5
OFFSHORE WE BUOY 2121      75                N/A     4/ 5
64NM E OF VA BCH 2150   75 73  190/ 12/ 14 1014.7R   4/ 5   2/ 8
DUCK PIER NC     2100   82 71  190/ 18/ 24 1012.5F
44056 DUCK FRF   2111      75                N/A     2/ 8
OREGON INLET NC  2100   78 79  200/ 23/ 26 1014.5F
HATTERAS NC      2100   80 80  190/  8/ 18 1015.0F
DIAMOND SHLS NC  2150   79 81  200/ 17/ 19 1014.8F   4/ 4   2/ 7
CAPE LOOKOUT NC  2200   80     190/ 18/ 21 1014.5F
$$
  

Return to Home page


Western Regional Climate Center, wrcc@dri.edu